Regional Weather Roundup
Issued by NWS

Home | Current Version | Previous Version | Text Only | Print | Product List | Glossary On
Versions: 1 2 3 4 5 6 7 8 9 10 11 12 13 14 15 16 17 18 19 20 21 22 23 24 25 26 27 28 29 30 31 32 33 34 35 36 37 38 39 40 41 42 43 44 45 46 47 48 49 50
000
ASCA42 TJSJ 310110
RWRPR
PUERTO RICO/U.S. VIRGIN ISLANDS HOURLY WEATHER ROUNDUP
NATIONAL WEATHER SERVICE SAN JUAN PR
900 PM AST THU JUL 30 2015

PRZ001-004-310200-
PUERTO RICO

CITY           SKY/WX    TMP DP  RH WIND       PRES   REMARKS
SAN JUAN LMM   PTCLDY    82  75  78 E14       30.05R
AGUADILLA      MOCLDY    81  75  83 E14G20    30.06R
$$

PRZ006-007-310200-
U.S. VIRGIN ISLANDS

CITY           SKY/WX    TMP DP  RH WIND       PRES   REMARKS
CHARLOTTE AMA  LGT RAIN  82  75  78 E12       30.05R
CHRISTIANSTED  PTCLDY    82  75  78 E15       30.04R
$$

HOURLY WEATHER ROUNDUP FOR THE NEWS MEDIA

CITY           SKY/WX    TMP DP  RH WIND       PRES   REMARKS
ORLANDO        MOCLDY    78  76  93 SW6       29.98R
NEW YORK       MOCLDY    76  73  91 S10       29.84R
NEWARK         MOCLDY    78  72  81 SW8       29.82R
CHICAGO        CLEAR     83  55  38 W13       29.99S
HARTFORD       LGT RAIN  73  70  90 SW10      29.82F
BOSTON         CLOUDY    77  72  84 SW16      29.78S
DALLAS         PTCLDY    98  63  31 E7        29.98S HX 100
PHILADELPHIA   MOCLDY    79  73  82 SW8       29.86R
LOS ANGELES    MOSUNNY   73  66  78 W13       29.97F
WASHINGTON DC  MOCLDY    78  75  90 SW3       29.89R


USA.gov is the U.S. government's official web portal to all federal, state and local government web resources and services.